Regional Weather Roundup
Issued by NWS

Home | Current Version | Previous Version | Text Only | Print | Product List | Glossary Off
Versions: 1 2 3 4 5 6 7 8 9 10 11 12 13 14 15 16 17 18 19 20 21 22 23 24 25 26 27 28 29 30 31 32 33 34 35 36 37 38 39 40 41 42 43 44 45 46 47 48 49 50

000
ASUS43 KIND 271509
RWRIN

WEATHER ROUNDUP FOR INDIANA
NATIONAL WEATHER SERVICE INDIANAPOLIS IN
1100 AM EDT THU JUL 27 2017

NOTE: "FAIR" INDICATES FEW OR NO CLOUDS BELOW 12,000 FEET WITH NO
SIGNIFICANT WEATHER AND/OR OBSTRUCTIONS TO VISIBILITY.

* - STATION DOES NOT REPORT WEATHER SUCH AS PRECIPITATION OR FOG.

+ - STATION NOT QUALITY CONTROLLED BY THE NATIONAL WEATHER SERVICE.
    USE DATA WITH CAUTION...ESPECIALLY DEWPOINT AND RELATIVE
    HUMIDITY OBSERVATIONS.

INZ001>003-010>013-019-020-271600-
NORTHWEST INDIANA

CITY           SKY/WX    TMP DP  RH WIND       PRES   REMARKS
GARY /AIRPORT/ CLOUDY    75  72  88 NW6       29.94R FOG
KNOX *+        CLOUDY    72  72 100 CALM      29.93S
LA PORTE +     CLOUDY    75  71  87 CALM      29.94
MICHIGAN CITY+ CLOUDY    79  70  73 E3        29.93S
MONTICELLO +   CLOUDY    75  73  93 W6        29.93F
RENSSELAER +   CLOUDY    73  70  88 W5        29.94S
VALPARAISO     CLOUDY    76  73  91 CALM      29.94S FOG

$$

LMZ046-743>745-271600-
SOUTHERN LAKE MICHIGAN

STATION/POSITION TIME  TEMP    WIND        PRES    WAVE
                       AIR SEA DIR/SP/G            HT
                 (UTC) (F)     (DEG/KT/KT) (MB)    (FT)
BURNS HARBOR     1406   74      70/  3/  6 1013.9
MICHIGAN CITY    1440   75      CALM  /  1   N/A
5NW MICH CITY    1500   75 76  320/  2/  2   N/A     0

$$

INZ004-005-014>016-021>024-271600-
NORTH CENTRAL INDIANA

CITY           SKY/WX    TMP DP  RH WIND       PRES   REMARKS
ELKHART        PTSUNNY   75  68  78 CALM      29.93F
GOSHEN         CLOUDY    75  69  81 SW3       29.93F
LOGANSPORT +   CLOUDY    75  72  88 SW7       29.94F
PERU/GRISSOM   PTSUNNY   75  75  99 W8        29.93F
ROCHESTER +    CLOUDY    77  72  83 W5        29.94S
SOUTH BEND     CLOUDY    76  71  85 CALM      29.93S
WARSAW +       CLOUDY    75  72  88 W5        29.94S

$$

INZ006>009-017-018-025>027-271600-
NORTHEAST INDIANA

CITY           SKY/WX    TMP DP  RH WIND       PRES   REMARKS
AUBURN +       CLOUDY    77  68  73 CALM      29.95S
FORT WAYNE     CLOUDY    74  71  91 SW5       29.95S
HUNTINGTON +   CLOUDY    73  72  96 SW6       29.94S
KENDALLVILLE + CLOUDY    78  71  81 W6        29.95S

$$

INZ028-029-035-036-043>045-051>053-271600-
WEST CENTRAL INDIANA

CITY           SKY/WX    TMP DP  RH WIND       PRES   REMARKS
GREENCASTLE +  CLOUDY    77  72  83 W6        29.96S
LAFAYETTE      CLOUDY    74  73  97 NW5       29.93F
TERRE HAUTE    CLOUDY    76  71  85 W9        29.96R

$$

INZ030>032-037>040-046>048-054>057-064-065-271600-
CENTRAL INDIANA

CITY           SKY/WX    TMP DP  RH WIND       PRES   REMARKS
ANDERSON       CLOUDY    72  72 100 MISG      29.96S VSB 1
CP ATTERBURY + CLOUDY    77  70  78 W6        29.97R
COLUMBUS       CLOUDY    75  70  83 W7        29.97S
FRANKFORT +    CLOUDY    77  74  90 W6        29.96F
GREENWOOD *+   CLOUDY   N/A N/A N/A W9        29.96S
INDIANAPOLIS   CLOUDY    76  71  85 W14       29.95S
-EAGLE CREEK   CLOUDY    75  71  87 W7        29.95S
KOKOMO +       CLOUDY    74  71  91 CALM      29.96S
MARION +       CLOUDY    72  72 100 NW3       29.96S FOG
MT COMFORT *+  CLOUDY    73  72  94 W8        29.96S
SHELBYVILLE    CLOUDY    78  70  76 W13       29.95F
ZIONSVILLE +   DRIZZLE   72  72  99 NW3       29.96S

$$

INZ033-034-041-042-049-050-058-059-271600-
EAST CENTRAL INDIANA

CITY           SKY/WX    TMP DP  RH WIND       PRES   REMARKS
MUNCIE         CLOUDY    75  72  90 W7        29.95S
RICHMOND +     LGT RAIN  72  72 100 W3        29.99R

$$

INZ060-061-067>069-081>083-085>088-271600-
SOUTHWEST INDIANA

CITY           SKY/WX    TMP DP  RH WIND       PRES   REMARKS
EVANSVILLE     CLOUDY    76  73  91 NE6       29.97F
HUNTINGBURG *+ CLOUDY    77  74  90 CALM      29.99R

$$

INZ062-063-066-070>080-084-089>092-271600-
SOUTH CENTRAL AND SOUTHEAST INDIANA

CITY           SKY/WX    TMP DP  RH WIND       PRES   REMARKS
BEDFORD +      CLOUDY    75  72  88 S3        29.98R
BLOOMINGTON    LGT RAIN  76  71  85 W7        29.97S
MADISON *+     CLOUDY    79  72  78 W5        30.01R
NORTH VERNON + CLOUDY    75  72  88 W6        29.98S
SEYMOUR +      CLOUDY    79  72  78 SW5       29.97S

$$





USA.gov is the U.S. government's official web portal to all federal, state and local government web resources and services.